Vertical_Velocity
2 -1 1 -1 -1 -1 1 1 2 0 -2 -1 0 -2 -1 -1 2 0 -0 -1 2 -1 3 -3 -0 2 -0 -0 2 0 0 -1 -0
0 0 1 -0 -0 0 -0 -2 -1 2 -1 1 -2 -1 2 0 2 1 0 2 -2 0 0 -1 4 2 -1 0 0 -0 0 0 1
-2 0 2 -0 -1 1 0 -1 -2 0 -2 2 -1 0 1 1 0 1 0 1 -1 -1 -3 2 -2 1 2 3 3 3 -0 -1 -0
-0 1 -0 1 -1 0 -1 -1 0 1 1 -0 1 0 0 0 1 -2 1 1 1 0 1 -2 1 -0 -2 -1 -4 4 -2 3 0
0 1 -1 1 1 -0 0 -0 -1 0 -0 -0 0 -0 3 -1 1 0 0 -1 1 2 1 -1 -1 -2 -0 1 -1 -2 -2 1 5
0 -3 -2 -2 -1 -1 -2 -3 -1 -0 -2 -1 -2 -0 1 -0 -1 1 2 2 1 -2 0 -4 2 2 2 1 -3 -1 -1 -2 -2
3 0 -0 2 -1 -1 1 2 0 0 1 1 -1 -1 -2 -4 -1 -2 1 -0 1 0 -5 5 3 -2 -1 -1 -1 -1 -2 -1 -1
2 3 3 2 1 2 1 1 2 0 0 1 1 -1 -0 1 2 -0 1 -3 -2 2 8 1 3 7 0 2 -1 -3 -3 -3 -1
-2 -2 1 -1 1 1 1 -0 1 1 -2 -4 -3 -0 -2 -1 -3 -2 -2 -3 1 0 -4 0 6 5 5 3 5 7 7 2 2
2 3 2 1 -0 -1 -2 -0 -0 -2 2 3 1 1 2 3 2 3 1 1 1 0 1 -1 -3 -4 5 9 9 7 5 8 9
2 0 2 2 2 1 -0 1 -2 -1 -2 -2 -2 -2 1 3 1 -1 -0 0 2 2 1 1 -1 1 0 0 1 6 5 9 7
1 1 1 -0 -2 -3 -1 -2 1 1 2 0 1 0 3 1 -1 -1 -0 0 2 0 0 -0 1 0 -1 -2 -2 4 3 6 2
-3 -0 1 -2 -3 -2 -1 0 1 -0 -3 -4 -2 -2 1 -1 -0 1 1 2 1 3 2 -1 1 2 2 0 -2 -3 -5 -2 2
1 1 -1 -0 -1 -1 1 0 -1 -2 -2 -2 -2 -1 -0 1 1 1 3 2 0 0 2 2 2 1 0 -0 -1 1 1 -2 -4
-0 1 0 2 0 1 1 0 1 -3 -3 -2 -3 -2 2 1 1 0 2 0 1 0 -1 -2 -2 0 -0 -1 -0 -1 -0 -2 -1
1 -1 -1 -2 -2 -3 -3 -2 -0 -1 -2 -6 -5 -8 -3 -2 0 -2 -2 -1 -3 -1 -1 -2 -1 -5 -0 -0 1 1 2 1 -1
-1 -1 -1 -1 -1 -1 -2 -3 -2 -1 -3 -3 -3 -4 -9 0 -5 -1 -3 0 -2 -1 0 -1 1 -1 -2 -2 -0 -1 -1 -2 -4
-1 -2 -3 -3 -2 -2 -3 -1 -2 -2 0 -0 -0 -2 -3 -7 1 -4 -3 -1 -5 -4 -5 -3 -3 -3 -2 -3 -6 -5 -4 -4 -4
-2 -1 -2 -1 -1 0 -1 -1 -1 -0 -0 -0 -0 4 6 -2 -10 -12 -8 -1 -2 -4 -5 -6 -5 -5 -4 -4 -3 -5 -4 -6 -6
-1 -2 -1 -1 -2 -2 -1 0 -1 -2 -1 -1 -1 -1 -1 1 3 -8 -20 -14 -6 1 0 -2 -1 -1 -0 -2 -2 -1 -2 -3 1
Height
1506 1506 1507 1507 1507 1507 1506 1507 1507 1507 1507 1507 1506 1505 1505 1504 1504 1503 1503 1503 1502 1501 1502 1502 1503 1501 1501 1502 1502 1502 1501 1500 1500
1507 1507 1507 1507 1507 1507 1506 1506 1507 1506 1506 1505 1505 1504 1504 1503 1502 1502 1501 1501 1500 1500 1501 1502 1501 1500 1499 1500 1499 1499 1498 1498 1497
1506 1507 1507 1507 1507 1507 1507 1507 1506 1506 1506 1505 1504 1504 1503 1502 1502 1500 1499 1499 1498 1497 1498 1499 1499 1498 1497 1497 1497 1497 1496 1496 1495
1507 1507 1507 1507 1507 1507 1507 1507 1506 1506 1505 1505 1504 1503 1502 1501 1501 1500 1499 1498 1497 1496 1496 1496 1496 1495 1494 1493 1494 1494 1494 1493 1492
1507 1507 1507 1507 1507 1507 1507 1506 1506 1506 1505 1504 1503 1502 1501 1500 1499 1498 1498 1497 1496 1494 1494 1493 1493 1492 1491 1490 1489 1489 1489 1489 1489
1506 1506 1506 1507 1507 1506 1506 1506 1505 1505 1504 1503 1502 1501 1500 1499 1498 1497 1496 1494 1493 1492 1491 1490 1490 1489 1488 1487 1486 1485 1484 1483 1484
1506 1505 1505 1505 1505 1505 1505 1504 1504 1503 1502 1501 1500 1499 1498 1497 1495 1494 1493 1492 1490 1488 1487 1487 1485 1484 1483 1483 1481 1480 1478 1478 1477
1505 1505 1505 1505 1505 1504 1504 1503 1503 1501 1500 1499 1498 1496 1495 1494 1492 1491 1489 1488 1486 1485 1484 1483 1481 1479 1478 1477 1475 1474 1474 1473 1472
1504 1505 1505 1504 1504 1503 1503 1502 1501 1499 1498 1497 1495 1493 1492 1490 1488 1486 1484 1483 1482 1480 1478 1477 1475 1474 1473 1472 1470 1469 1468 1467 1466
1504 1504 1504 1503 1502 1501 1501 1500 1499 1497 1497 1495 1492 1491 1489 1487 1484 1482 1480 1479 1477 1475 1473 1471 1470 1468 1468 1466 1465 1463 1462 1461 1459
1503 1503 1503 1501 1501 1500 1499 1498 1496 1495 1493 1491 1489 1487 1485 1482 1480 1477 1476 1474 1472 1470 1468 1466 1465 1464 1462 1461 1460 1458 1456 1455 1453
1501 1502 1501 1500 1500 1499 1497 1496 1494 1491 1489 1487 1485 1483 1481 1478 1475 1472 1471 1469 1466 1465 1463 1461 1459 1457 1456 1455 1453 1452 1450 1449 1446
1500 1500 1500 1499 1498 1496 1494 1493 1490 1487 1485 1483 1480 1478 1475 1472 1469 1467 1465 1464 1462 1460 1458 1456 1454 1453 1450 1448 1447 1445 1442 1441 1440
1499 1499 1498 1497 1496 1494 1492 1490 1487 1483 1480 1477 1474 1472 1469 1466 1465 1463 1462 1460 1458 1455 1453 1451 1448 1446 1443 1441 1439 1438 1435 1433 1431
1498 1497 1497 1496 1494 1492 1489 1486 1483 1479 1475 1472 1469 1467 1464 1462 1460 1459 1458 1456 1454 1450 1447 1445 1442 1440 1437 1435 1433 1430 1427 1425 1423
1497 1497 1495 1493 1491 1488 1485 1483 1480 1476 1471 1467 1463 1461 1460 1456 1456 1456 1453 1451 1448 1445 1443 1439 1436 1433 1430 1427 1424 1421 1419 1416 1414
1496 1495 1493 1491 1488 1485 1482 1479 1476 1473 1469 1465 1459 1455 1453 1453 1453 1449 1447 1443 1441 1438 1436 1433 1429 1425 1421 1419 1416 1413 1410 1408 1406
1494 1493 1491 1489 1486 1483 1480 1477 1473 1471 1469 1466 1464 1458 1454 1446 1443 1442 1439 1437 1433 1431 1428 1425 1421 1418 1414 1411 1408 1405 1402 1400 1398
1493 1491 1489 1486 1484 1481 1478 1475 1472 1469 1466 1464 1463 1461 1458 1451 1437 1433 1431 1429 1426 1423 1420 1417 1413 1410 1406 1404 1401 1399 1396 1392 1389
1491 1489 1486 1483 1481 1479 1476 1473 1470 1467 1465 1462 1458 1455 1452 1449 1443 1428 1424 1421 1420 1416 1413 1410 1406 1403 1400 1396 1393 1390 1386 1384 1382